Home   Weather   Feldbach   Past weeks

Flag for Austria Past Weather in Feldbach, Styria, Austria — Yesterday and Last 2 Weeks

Now
36 °F

Partly sunny.


Feels Like: N/A
Forecast: 22 / 35 °F
Wind: N/A

Location: Graz-Thalerhof-Flughafen

Current Time: Dec 4, 2016 at 1:32:04 pm

Latest Report: Dec 4, 2016 at 12:00 pm


Visibility: 15 mi

Pressure: 30.44 "Hg

Humidity: 66%

Dew Point: 26 °F

Location of FeldbachLocation

Past Weather in Feldbach — Graph

°F

Feldbach Temperature Yesterday

Maximum temperature yesterday: 42 °F (at 2:00 pm)
Minimum temperature yesterday: 25 °F (at 8:00 am)
Average temperature yesterday: 34 °F

High & Low Weather Summary for the Past Weeks

 TemperatureHumidityPressure
High63 °F (Nov 22, 2:00 pm)100% (Nov 20, 8:00 pm)30.59 "Hg (Nov 20, 8:00 pm)
Low18 °F (Nov 30, 5:00 am)32% (Nov 28, 3:00 pm)29.83 "Hg (Nov 19, 5:00 pm)
Average39 °F85%30.16 "Hg
* Reported Nov 19 12:00 pm — Dec 4 12:00 pm, Feldbach, Weather by CustomWeather, © 2016

Note: Actual official high and low records may vary slightly from our data, if they occured in-between our weather recording intervals... More about our weather records

Advertising

Feldbach Weather History for the Previous 24 Hours

Scroll right to see more
 ConditionsComfort  
Time TempWeatherWind HumidityBarometerVisibility
12:00 pm
Sun, Dec 4
36 °FPartly sunny.N/A66%30.44 "Hg15 mi
11:00 am33 °FPartly sunny.N/A76%30.45 "Hg13 mi
10:00 am32 °FPartly sunny.N/A83%30.46 "Hg7 mi
9:00 am27 °FPartly sunny.N/A96%30.46 "Hg7 mi
8:00 am24 °FIcy mix. Scattered clouds.N/A96%30.45 "Hg1 mi
7:00 am24 °FPassing clouds.N/A96%30.44 "Hg5 mi
6:00 am25 °FPassing clouds.N/A91%30.44 "Hg4 mi
5:00 am28 °FPassing clouds.N/A86%30.43 "Hg14 mi
4:00 am29 °FOvercast.No wind83%30.42 "Hg12 mi
3:00 am28 °FPassing clouds.N/A82%30.43 "Hg14 mi
2:00 am29 °FPassing clouds.N/A82%30.42 "Hg17 mi
1:00 am31 °FPassing clouds.N/A79%30.41 "Hg19 mi
12:00 am32 °FOvercast.N/A79%30.40 "Hg19 mi
11:00 pm
Sat, Dec 3
33 °FOvercast.N/A75%30.40 "Hg16 mi
10:00 pm33 °FOvercast.N/A76%30.39 "Hg17 mi
9:00 pm34 °FOvercast.N/A76%30.39 "Hg17 mi
8:00 pm34 °FOvercast.N/A72%30.37 "Hg15 mi
7:00 pm34 °FOvercast.N/A73%30.35 "Hg16 mi
6:00 pm35 °FOvercast.N/A74%30.34 "Hg14 mi
5:00 pm36 °FOvercast.N/A68%30.32 "Hg25 mi
4:00 pm37 °FPartly sunny.N/A66%30.30 "Hg25 mi
3:00 pm40 °FPartly sunny.N/A64%30.28 "Hg25 mi
2:00 pm42 °FPassing clouds.N/A57%30.27 "Hg22 mi
1:00 pm41 °FPassing clouds.N/A58%30.27 "Hg12 mi
Weather by CustomWeather, © 2016

See weather overviewHow to use our weather pages